Regional Weather Roundup
Issued by NWS

Home | Current Version | Previous Version | Graphics & Text | Print | Product List | Glossary On
Versions: 1 2 3 4 5 6 7 8 9 10 11 12 13 14 15 16 17 18 19 20 21 22 23 24 25 26 27 28 29 30 31 32 33 34 35 36 37 38 39 40 41 42 43 44 45 46 47 48 49 50
000
ASUS45 KABQ 161010
RWRNM
NEW MEXICO REGIONAL WEATHER ROUNDUP
NATIONAL WEATHER SERVICE ALBUQUERQUE NM
300 AM MST MON JAN 16 2017

NOTE: "FAIR" MEANS FEW OR NO CLOUDS BELOW 12,000 FEET AGL WITH NO
       SIGNIFICANT WEATHER OR OBSTRUCTIONS TO VISION.

      THIS PRODUCT IS RELEASED AS TWO VERSIONS.  ONE VERSION NEAR
      THE TOP OF THE HOUR CONTAINING PRELIMINARY DATA FROM ALBUQUERQUE
      AND OTHER STATIONS.  A FINAL VERSION WITH ADDITIONAL DATA IS
      ISSUED ABOUT 10 MINUTES AFTER THE HOUR.

NMZ501-503-504-510>518-161100-
NORTHWEST PLATEAU/NORTHCENTRAL MOUNTAINS

CITY           SKY/WX    TMP DP  RH WIND       PRES   REMARKS
FARMINGTON     LGT RAIN  36  34  92 W13       29.90R WCI  27
LOS ALAMOS     FOG       31  31 100 CALM      29.89S VSB 1/4
SANTA FE       FOG       33  32  96 W6        29.87F VSB 1/4 WCI  28
TAOS           CLOUDY    30  25  80 SW6       29.88S WCI  24
ANGEL FIRE     FLURRIES  30  26  85 W8        29.86S WCI  22

$$
NMZ402-403-502-505>509-161100-
WESTCENTRAL MOUNTAINS/SOUTHWEST MOUNTAINS

CITY           SKY/WX    TMP DP  RH WIND       PRES   REMARKS
GALLUP         MOCLDY    36  32  85 W8        29.96S WCI  30
GRANTS         FAIR      33  31  93 W7        29.94S WCI  27
SILVER CITY    FAIR      37  35  93 NW12      29.99S WCI  29

$$
NMZ407-409-411-412-161100-
SOUTHERN DESERTS

CITY           SKY/WX    TMP DP  RH WIND       PRES   REMARKS
DEMING         FAIR      39  37  92 W8        29.98F WCI  33
LAS CRUCES     FAIR      39  36  87 W14G21    29.97F WCI  31
HOLLOMAN AFB   FAIR      39  39 100 S6        29.97F WCI  35
ALAMOGORDO     FAIR      39  39 100 SE5       29.95F
T OR C         FOG       36  35  96 SW5       29.94S VSB 1/4 WCI  32

$$
NMZ519>523-161100-
CENTRAL VALLEYS/CENTRAL HIGHLANDS

CITY           SKY/WX    TMP DP  RH WIND       PRES   REMARKS
ALBUQUERQUE    MOCLDY    36  36 100 SE3       29.91S
DOUBLE EAGLE   FOG       34  34  99 S3        29.91S VSB 1/4
MORIARTY ARPT  CLOUDY    30  28  94 CALM      29.90S
CLINES CORNERS CLOUDY    31  30  96 W21       29.86S FOG     WCI  18
BELEN          FAIR      35  34  95 SW7       29.92S WCI  29
SOCORRO        FAIR      36  35  97 SW3       29.94S

$$
NMZ524>526-539-540-161100-
SOUTHCENTRAL MOUNTAINS

CITY           SKY/WX    TMP DP  RH WIND       PRES   REMARKS
RUIDOSO        MOCLDY    34  32  93 N9        29.93S WCI  26

$$
NMZ527>531-161100-
NORTHEAST HIGHLANDS/NORTHEAST PLAINS

CITY           SKY/WX    TMP DP  RH WIND       PRES   REMARKS
LAS VEGAS      FAIR      25  25 100 NE6       29.82F FOG     WCI  18
RATON          LGT SNOW  30  28  92 SE5       29.83S FOG     WCI  25
CLAYTON        LGT SNOW  32  32 100 NW7       29.84F FOG     WCI  26

$$
NMZ532>537-161100-
EASTCENTRAL PLAINS

CITY           SKY/WX    TMP DP  RH WIND       PRES   REMARKS
TUCUMCARI      FAIR      31  31 100 S5        29.86S WCI  26
CANNON AFB     FAIR      29  29 100 W3        29.88S
CLOVIS AIRPORT FAIR      28  25  86 W6        29.88S WCI  22

$$
NMZ028-029-538-161100-
SOUTHEAST PLAINS

CITY           SKY/WX    TMP DP  RH WIND       PRES   REMARKS
ROSWELL        FOG       36  34  92 S5        29.93R VSB 1/4 WCI  32
ARTESIA        FOG       36  36 100 N6        29.93S VSB<1/4 WCI  31
CARLSBAD       FAIR      41  38  89 VRB3      29.91F


$$




USA.gov is the U.S. government's official web portal to all federal, state and local government web resources and services.